Regional Weather Roundup
Issued by NWS Jackson, KY

Home | Current Version | Previous Version | Graphics & Text | Print | Product List | Glossary On
Versions: 1 2 3 4 5 6 7 8 9 10 11 12 13 14 15 16 17 18 19 20 21 22 23 24 25 26 27 28 29 30 31 32 33 34 35 36 37 38 39 40 41 42 43 44 45 46 47 48 49 50
053
ASUS43 KJKL 301910
RWRJKL

EAST KENTUCKY HOURLY WEATHER ROUNDUP
NATIONAL WEATHER SERVICE JACKSON KY
300 PM EDT THU MAR 30 2017

NOTE: "FAIR" INDICATES FEW OR NO CLOUDS BELOW 12,000 FEET WITH
NO SIGNIFICANT WEATHER AND/OR OBSTRUCTIONS TO VISIBILITY.

* THESE REPORTS ARE NOT UNDER NWS QUALITY CONTROL AND MAY NOT
  REPORT WEATHER SUCH AS PRECIPITATION AND FOG.

KYZ079-080-083-085-087-088-110-112-115-119-120-302000
...EASTERN KENTUCKY...

CITY           SKY/WX    TMP DP  RH WIND       PRES   REMARKS
JACKSON        MOSUNNY   80  54  40 S8G17     29.75S
LONDON         MOSUNNY   78  47  33 S17G33    29.74F
SOMERSET*      CLOUDY    77  45  31 S17G25    29.72F
MONTICELLO*    CLOUDY    79  51  37 S21G26    29.70F
WILLIAMSBURG*  PTCLDY    79  48  34 S18G25    29.75F
MIDDLESBORO*   CLOUDY    78  53  43 S12G20    29.79F
HARLAN APT*    CLOUDY    77  50  38 SE9       29.81F
PIKE CO APT*   CLOUDY    77  53  43 S15G31    29.77F
BIG SANDY APT* PTCLDY    79  54  41 SW18G25   29.76F
MOREHEAD APT*  CLOUDY    79  52  38 S14G29    29.72F
ASHLAND*       CLOUDY    70  55  60 SW10G21   29.70F
$$

KYZ035-036-041-042-044-050-067-078-099-302000
...CENTRAL KENTUCKY...

CITY           SKY/WX    TMP DP  RH WIND       PRES   REMARKS
MT STERLING*   MOSUNNY   77  54  44 SW14G31   29.71F
FLEMING/MASON* PTSUNNY   78  56  46 SW14G20   29.70F
DANVILLE*      CLOUDY    77  50  38 S13G23    29.69F
LEXINGTON      CLOUDY    79  48  33 S17G25    29.68F
FRANKFORT      CLOUDY    78  48  34 SW10G22   29.67F
LOUISVILLE     CLOUDY    78  51  38 SW22G35   29.64F
LEBANON*         N/A     75  52  43 S15       29.67F
GLASGOW*       CLOUDY    78  55  44 S16G23    29.67F
BOWLING GREEN  MOSUNNY   77  56  48 S18G31    29.66F
$$

KYZ091>093-OHZ055-061-077-WVZ005-015-034-035-042-302000
...SOUTHERN OHIO/WEST VIRGINIA...

CITY           SKY/WX    TMP DP  RH WIND       PRES   REMARKS
COVINGTON      PTSUNNY   78  51  38 S15G25    29.65F
COLUMBUS       PTSUNNY   72  54  53 SE8       29.71F
DAYTON         CLOUDY    74  54  49 W7G18     29.66F
WILMINGTON     CLOUDY    74  55  51 S16G25    29.67F
HUNTINGTON     CLOUDY    80  52  37 S12G22    29.73S
CHARLESTON     PTSUNNY   77  53  43 SE10G28   29.76F
PINEVILLE*     CLOUDY    71  50  46 MISG      29.91F
BECKLEY        MOSUNNY   56  48  74 SE18G30   29.94F
BLUEFIELD      CLOUDY    52  48  86 MISG      29.98F
LOGAN CO APT*  MOCLDY    77  54  44 S16G23    29.79F
$$

VAZ002-007-008-TNZ017-027-036-066-071-302000
...SOUTHWEST VIRGINIA/EAST TENNESSEE...

CITY           SKY/WX    TMP DP  RH WIND       PRES   REMARKS
WISE*          CLOUDY    68  52  56 SE18G29   29.89F
JONESVILLE*      N/A     75  55  50 S13G22    29.85F
ABINGDON*      PTSUNNY   71  54  55 SW14G21   29.92F
BRISTOL        CLOUDY    71  55  56 SE12      29.89F
MORRISTOWN*    CLEAR     77  54  44 S9        29.82F
SEVIERVILLE*   PTCLDY    77  48  36 S14       29.80F
KNOXVILLE      CLOUDY    78  52  40 S14G22    29.78F
LAFOLLETTE*    CLEAR     77  50  38 S9G25     29.81F
OAK RIDGE      MOSUNNY   79  50  36 S14G23    29.79F
CROSSVILLE     MOSUNNY   74  46  36 S15G33    29.79F
NASHVILLE      CLOUDY    77  56  48 S18G32    29.70F
$$

...KEY TO REMARKS...
VSB - VISIBILITY IN MILES
WCI - WIND CHILL INDEX
HX  - HEAT INDEX

$$




USA.gov is the U.S. government's official web portal to all federal, state and local government web resources and services.